• Processing (Info)

  • MPEC 2018-V145: 2018 VF6

    The following Minor Planet Electronic Circular may be linked-to from your own Web pages, but must not otherwise be redistributed electronically.

    A form allowing access to any MPEC is at the bottom of this page.


    Read MPEC 2018-V144 Read MPEC 2018-V146


    M.P.E.C. 2018-V145                               Issued 2018 Nov. 11, 05:49 UT
    
         The Minor Planet Electronic Circulars contain information on unusual
             minor planets and routine data on comets.  They are published
        on behalf of Division F of the International Astronomical Union by the
              Minor Planet Center, Smithsonian Astrophysical Observatory,
                              Cambridge, MA 02138, U.S.A.
    
                 Prepared using the Tamkin Foundation Computer Network
    
                                  MPC@CFA.HARVARD.EDU
                URL https://www.minorplanetcenter.net/    ISSN 1523-6714
    
                                       2018 VF6
    
    Observations:
         K18V06F* C2018 11 07.13394 21 24 14.95 +06 31 18.3          20.7 GVEV145G96
         K18V06F  C2018 11 07.13962 21 24 16.32 +06 30 56.0          20.9 GVEV145G96
         K18V06F  C2018 11 07.14530 21 24 17.76 +06 30 34.1          20.7 GVEV145G96
         K18V06F  C2018 11 07.15099 21 24 19.18 +06 30 11.1          21.0 GVEV145G96
         K18V06F  C2018 11 07.17382821 24 24.79 +06 28 40.8          20.4 GVEV145H01
         K18V06F  C2018 11 07.17858421 24 25.98 +06 28 22.2          20.5 GVEV145H01
         K18V06F 1C2018 11 07.17942121 24 26.36 +06 28 14.9                LEV145658
         K18V06F 1C2018 11 07.18013921 24 26.55 +06 28 11.9                LEV145658
         K18V06F 1C2018 11 07.18159721 24 26.93 +06 28 06.5                LEV145658
         K18V06F 1C2018 11 07.18232621 24 27.11 +06 28 03.8                LEV145658
         K18V06F 1C2018 11 07.18520821 24 27.87 +06 27 52.6                LEV145658
         K18V06F  C2018 11 07.18831921 24 28.39 +06 27 43.8          20.3 GVEV145H01
         K18V06F  C2018 11 07.19868221 24 30.97 +06 27 03.1          20.4 GVEV145H01
         K18V06F  C2018 11 07.22086 21 24 36.51 +06 25 35.3          21.3 GVEV145I52
         K18V06F  C2018 11 07.22162 21 24 36.68 +06 25 33.2          21.4 GVEV145I52
         K18V06F  C2018 11 07.22414 21 24 37.29 +06 25 22.1          20.8 GVEV145I52
         K18V06F  C2018 11 07.22666 21 24 37.85 +06 25 14.2          20.5 GVEV145I52
         K18V06F KC2018 11 07.82450 21 27 09.87 +05 46 10.4          20.4 GVEV145J04
         K18V06F KC2018 11 07.82897 21 27 10.97 +05 45 52.9          20.3 GVEV145J04
         K18V06F KC2018 11 07.99579021 27 53.41 +05 34 57.8          20.7 VuEV145H21
         K18V06F KC2018 11 08.00450521 27 55.56 +05 34 23.8          20.9 VuEV145H21
         K18V06F KC2018 11 08.01689321 27 58.65 +05 33 35.5          20.6 VuEV145H21
         K18V06F  C2018 11 08.04773121 28 06.59 +05 31 36.2          20.4 GVEV145H01
         K18V06F  C2018 11 08.05083521 28 07.36 +05 31 24.0          20.4 GVEV145H01
         K18V06F KC2018 11 08.05761 21 28 08.96 +05 30 59.2                oEV145711
         K18V06F KC2018 11 08.06068 21 28 09.71 +05 30 46.4                oEV145711
         K18V06F  C2018 11 08.06084021 28 09.84 +05 30 44.9          20.6 GVEV145H01
         K18V06F KC2018 11 08.06376 21 28 10.47 +05 30 34.6                oEV145711
         K18V06F  C2018 11 08.06660 21 28 11.32 +05 30 22.8          20.7 GVEV145V06
         K18V06F  C2018 11 08.07003 21 28 12.18 +05 30 09.6          20.4 GVEV145V06
         K18V06F  C2018 11 08.07003721 28 12.12 +05 30 09.0          20.8 GVEV145H01
         K18V06F  C2018 11 08.07346 21 28 13.02 +05 29 56.0          20.5 GVEV145V06
         K18V06F  C2018 11 08.07689 21 28 13.87 +05 29 42.7          20.5 GVEV145V06
         K18V06F  C2018 11 08.16515 21 28 35.79 +05 23 57.8          20.7 GVEV145I52
         K18V06F  C2018 11 08.16640 21 28 36.10 +05 23 52.0                VEV145I52
         K18V06F  C2018 11 08.16765 21 28 36.40 +05 23 47.6                VEV145I52
         K18V06F  C2018 11 08.16889 21 28 36.71 +05 23 42.9          21.3 GVEV145I52
         K18V06F  C2018 11 09.06672 21 32 25.30 +04 25 32.1          20.6 GVEV145V06
         K18V06F  C2018 11 09.07015 21 32 26.15 +04 25 18.8                VEV145V06
         K18V06F  C2018 11 09.07358 21 32 27.00 +04 25 05.0                VEV145V06
         K18V06F  C2018 11 09.22973921 33 06.576+04 15 03.81         20.58GVEV145F52
         K18V06F  C2018 11 09.24260521 33 09.768+04 14 14.14         20.49GVEV145F52
         K18V06F  C2018 11 09.25549921 33 12.975+04 13 24.25         20.48GVEV145F52
         K18V06F  C2018 11 11.09291 21 41 02.04 +02 16 04.8          20.5 GVEV145I52
         K18V06F  C2018 11 11.09457 21 41 02.45 +02 15 58.4          20.5 GVEV145I52
         K18V06F  C2018 11 11.09623 21 41 02.89 +02 15 52.4          20.9 GVEV145I52
    
    Observer details:
    G96 Mt. Lemmon Survey.  Observer G. J. Leonard.  Measurers B. M. Africano,
        E. J. Christensen, G. A. Farneth, D. C. Fuls, A. R. Gibbs, A. D. Grauer,
        H. Groeller, J. A. Johnson, R. A. Kowalski, S. M. Larson, G. J. Leonard,
        R. L. Seaman, F. C. Shelly.  1.5-m reflector + 10K CCD.
    I52 Steward Observatory, Mt. Lemmon Station.  Observers R. A. Kowalski,
        H. Groeller.  Measurers B. M. Africano, E. J. Christensen, G. A. Farneth,
        D. C. Fuls, A. R. Gibbs, A. D. Grauer, H. Groeller, J. A. Johnson,
        R. A. Kowalski, S. M. Larson, G. J. Leonard, R. L. Seaman, F. C. Shelly.
        1.0-m reflector + CCD.
    
    Orbital elements:
    2018 VF6                                                 Earth MOID = 0.2204 AU
    Epoch 2019 Apr. 27.0 TT = JDT 2458600.5                 MPC
    M  46.21324              (2000.0)            P               Q
    n   0.29078455     Peri.  176.33906     +0.88594026     -0.32737306
    a   2.2564298      Node   210.31891     +0.40728629     +0.88801176
    e   0.4616687      Incl.   40.60273     +0.22187322     -0.32289626
    P   3.39           H   19.8           G   0.15           U   9
    Residuals in seconds of arc
    181107 G96  0.7+  0.2+    181107 I52  1.2-  1.1+    181108 V06  0.2+  0.2+
    181107 G96  0.1+  0.3+    181107 J04  0.5+  0.1+    181108 I52  0.3+  0.2+
    181107 G96  0.6+  0.7+    181107 J04  0.4+  0.1+    181108 I52  0.3+  0.7-
    181107 G96  0.8+  0.1+    181107 H21  0.3+  0.1+    181108 I52  0.1+  0.2-
    181107 H01  0.6+  0.2+    181108 H21  0.1+  0.2+    181108 I52  0.2+  0.1-
    181107 H01  0.7+  0.3+    181108 H21  0.3+  0.3+    181109 V06  0.0   0.3+
    181107 658  1.0-  0.7-    181108 H01  0.3+  0.2+    181109 V06  0.0   0.3+
    181107 658  0.8-  0.9-    181108 H01  0.3+  0.1+    181109 V06  0.1-  0.2-
    181107 658  0.6-  0.5-    181108 711  0.1-  1.0+    181109 F52  0.3+  0.0
    181107 658  0.6-  0.4-    181108 711  0.3-  0.2+    181109 F52  0.2+  0.1+
    181107 658  0.1+  0.2-    181108 H01  0.3+  0.1+    181109 F52  0.2+  0.1+
    181107 H01  0.5+  0.2+    181108 711  0.3-  0.4+    181111 I52  0.2-  0.1-
    181107 H01  0.5+  0.3+    181108 V06  0.3+  0.1+    181111 I52  0.3-  0.2-
    181107 I52  0.4+  0.6-    181108 V06  0.4+  0.3+    181111 I52  0.1+  0.0
    181107 I52  0.1+  0.3+    181108 H01  0.3+  0.2+
    181107 I52  0.2-  0.9-    181108 V06  0.3+  0.1+
    
    Ephemeris:
    2018 VF6                 a,e,i = 2.26, 0.46, 41                  q = 1.2147
    Date    TT    R. A. (2000) Decl.     Delta      r     Elong.  Phase     V
    2018 10 12    19 46 15.7 +32 59 10   0.6189  1.2789   102.0    49.8    21.1
    ...
    2018 10 27    20 38 57.7 +18 42 51   0.5600  1.2390   102.1    51.7    20.9
    ...
    2018 11 04    21 11 09.3 +09 58 17   0.5525  1.2252   101.2    52.6    20.9
    ...
    2018 11 10    21 36 22.8 +03 25 44   0.5601  1.2186    99.9    53.2    20.9
    2018 11 11    21 40 38.2 +02 22 08   0.5625  1.2178    99.6    53.3    20.9
    2018 11 12    21 44 54.1 +01 19 19   0.5652  1.2171    99.4    53.4    20.9
    ...
    2018 11 18    22 10 33.8 -04 36 56   0.5879  1.2148    97.6    53.8    21.0
    ...
    2018 11 26    22 44 24.7 -11 21 16   0.6333  1.2170    94.9    53.9    21.2
    ...
    2018 12 11    23 44 32.2 -19 56 28   0.7530  1.2367    89.7    52.8    21.6
    
    A. U. Tomatic                (C) Copyright 2018 MPC           M.P.E.C. 2018-V145
    

    Read MPEC 2018-V144 Read MPEC 2018-V146


    MPEC number:

    Enter an MPEC number in one of the following forms:

    • 1997-B01 (the full form)
    • J97B01 (the packed version of the full form)
    • B01 (the abbreviated form)